Weather History for K4M9 - May, 2013

Change the Weather History Date:

Sunday, May 5, 2013

  Actual Average (KARG) Record (KARG)
Temperature  
Mean Temperature 48 °F -  
Max Temperature 53 °F 75 °F 91 °F (2012)
Min Temperature 44 °F 55 °F 44 °F (2005)
Degree Days  
Heating Degree Days 16    
Moisture  
Dew Point 45 °F    
Average Humidity 85    
Maximum Humidity 100    
Minimum Humidity 71    
Precipitation  
Precipitation 0.10 in - - ()
Sea Level Pressure  
Sea Level Pressure 29.94 in    
Wind  
Wind Speed 9 mph (NW)    
Max Wind Speed 15 mph    
Max Gust Speed 21 mph    
Visibility 9 miles    
Events Rain    
Averages and records for this station are not official NWS values.
T = Trace of Precipitation, MM = Missing Value Source: NWS Daily Summary

Daily Weather History Graph

Daily Weather History Graph

Search for Another Location

Airport or City:

Trip Planner

Search our weather history database for the weather conditions in past years. The results will help you decide how hot, cold, wet, or windy it might be!

Date:

Astronomy

May. 05, 2013 Rise Set
Actual Time 6:04 AM CDT 7:54 PM CDT
Civil Twilight 5:36 AM CDT 8:22 PM CDT
Nautical Twilight 5:03 AM CDT 8:56 PM CDT
Astronomical Twilight 4:27 AM CDT 9:32 PM CDT
Moon 3:28 AM CDT (5/5) 4:00 PM CDT (5/5)
Length of Visible Light 14h 45m
Length of Day
13h 49m
Waning Crescent, 18% of the Moon is Illuminated
May 5
Waning Crescent
May 9
New
May 17
First Quarter
May 24
Full
May 31
Last Quarter

Hourly Weather History & Observations

Time (CDT) Temp. Windchill Dew Point Humidity Pressure Visibility Wind Dir Wind Speed Gust Speed Precip Events Conditions
12:15 AM 46.4 °F 42.4 °F 41.0 °F 81% 29.96 in 10.0 mi North 8.1 mph - N/A   Overcast
12:35 AM 46.4 °F 42.9 °F 41.0 °F 81% 29.96 in 10.0 mi North 6.9 mph - N/A   Overcast
12:55 AM 46.4 °F 41.9 °F 41.0 °F 81% 29.96 in 10.0 mi North 9.2 mph - N/A   Overcast
1:15 AM 46.4 °F 41.1 °F 41.0 °F 81% 29.95 in 10.0 mi North 11.5 mph - N/A   Overcast
1:35 AM 46.4 °F 41.5 °F 41.0 °F 81% 29.95 in 10.0 mi North 10.4 mph - N/A   Overcast
1:55 AM 46.4 °F 40.4 °F 41.0 °F 81% 29.94 in 10.0 mi North 13.8 mph 18.4 mph N/A   Overcast
2:15 AM 46.4 °F 41.9 °F 41.0 °F 81% 29.95 in 10.0 mi North 9.2 mph - N/A   Overcast
2:35 AM 46.4 °F 41.9 °F 41.0 °F 81% 29.94 in 10.0 mi North 9.2 mph - N/A   Overcast
2:55 AM 46.4 °F 41.5 °F 39.2 °F 76% 29.95 in 10.0 mi North 10.4 mph - N/A   Overcast
3:15 AM 46.4 °F 41.5 °F 41.0 °F 81% 29.94 in 10.0 mi North 10.4 mph - N/A   Overcast
3:35 AM 46.4 °F 41.9 °F 39.2 °F 76% 29.94 in 10.0 mi North 9.2 mph - N/A   Overcast
3:55 AM 44.6 °F 39.2 °F 39.2 °F 81% 29.94 in 10.0 mi North 10.4 mph - N/A   Overcast
4:15 AM 44.6 °F 38.8 °F 39.2 °F 81% 29.94 in 10.0 mi North 11.5 mph - N/A   Overcast
4:35 AM 44.6 °F 40.2 °F 39.2 °F 81% 29.94 in 10.0 mi North 8.1 mph - N/A   Overcast
4:55 AM 44.6 °F 40.2 °F 39.2 °F 81% 29.95 in 10.0 mi North 8.1 mph - N/A   Overcast
5:15 AM 44.6 °F 39.7 °F 39.2 °F 81% 29.96 in 10.0 mi North 9.2 mph - N/A   Overcast
5:35 AM 44.6 °F 39.2 °F 37.4 °F 76% 29.96 in 10.0 mi NNW 10.4 mph - N/A   Overcast
5:55 AM 44.6 °F 40.2 °F 39.2 °F 81% 29.96 in 10.0 mi NNW 8.1 mph - N/A   Scattered Clouds
6:15 AM 44.6 °F 40.2 °F 37.4 °F 76% 29.97 in 10.0 mi NNW 8.1 mph - N/A   Scattered Clouds
6:35 AM 44.6 °F 39.7 °F 37.4 °F 76% 29.97 in 10.0 mi NNW 9.2 mph - N/A   Clear
6:55 AM 44.6 °F 40.2 °F 37.4 °F 76% 29.97 in 10.0 mi NNW 8.1 mph - N/A   Clear
7:15 AM 44.6 °F 40.2 °F 37.4 °F 76% 29.96 in 10.0 mi NNW 8.1 mph - N/A   Clear
7:35 AM 44.6 °F 40.2 °F 37.4 °F 76% 29.96 in 10.0 mi NNW 8.1 mph - N/A   Unknown
7:55 AM 44.6 °F 40.2 °F 37.4 °F 76% 29.97 in 10.0 mi NNW 8.1 mph - N/A   Unknown
8:15 AM 46.4 °F 41.9 °F 37.4 °F 71% 29.97 in 10.0 mi NNW 9.2 mph - N/A   Unknown
8:35 AM 46.4 °F 41.5 °F 39.2 °F 76% 29.98 in 10.0 mi NNW 10.4 mph - N/A   Clear
8:55 AM 46.4 °F 41.9 °F 39.2 °F 76% 29.97 in 10.0 mi NNW 9.2 mph - N/A   Clear
9:15 AM 48.2 °F - 39.2 °F 71% 29.98 in 10.0 mi NNW 9.2 mph - N/A   Clear
9:35 AM 48.2 °F - 41.0 °F 76% 29.97 in 10.0 mi NNW 10.4 mph - N/A   Clear
9:55 AM 48.2 °F - 39.2 °F 71% 29.96 in 10.0 mi NW 11.5 mph - N/A   Clear
10:15 AM 48.2 °F - 41.0 °F 76% 29.97 in 10.0 mi NW 10.4 mph - N/A   Clear
10:35 AM 48.2 °F - 41.0 °F 76% 29.97 in 10.0 mi NNW 8.1 mph - N/A   Clear
10:55 AM 48.2 °F - 41.0 °F 76% 29.97 in 9.0 mi NNW 10.4 mph - N/A   Clear
11:15 AM 48.2 °F - 41.0 °F 76% 29.96 in 9.0 mi NW 8.1 mph - N/A Rain Light Rain
11:35 AM 48.2 °F - 44.6 °F 87% 29.96 in 7.0 mi WNW 10.4 mph - N/A Rain Light Rain
11:55 AM 48.2 °F - 44.6 °F 87% 29.97 in 7.0 mi NW 5.8 mph - 0.02 in Rain Light Rain
12:15 PM 48.2 °F - 44.6 °F 87% 29.97 in 5.0 mi NW 6.9 mph - 0.01 in Rain Light Rain
12:35 PM 48.2 °F - 46.4 °F 93% 29.96 in 5.0 mi West 8.1 mph - 0.03 in Rain Light Rain
12:55 PM 48.2 °F - 46.4 °F 93% 29.95 in 5.0 mi WNW 8.1 mph - 0.04 in Rain Light Rain
1:15 PM 48.2 °F - 46.4 °F 93% 29.94 in 3.0 mi West 10.4 mph - N/A Rain Light Rain
1:35 PM 50.0 °F - 48.2 °F 94% 29.95 in 7.0 mi West 10.4 mph - 0.01 in Rain Light Rain
1:55 PM 50.0 °F - 48.2 °F 94% 29.94 in 9.0 mi WNW 12.7 mph - 0.01 in   Scattered Clouds
2:35 PM 51.8 °F - 50.0 °F 94% 29.93 in 10.0 mi WNW 15.0 mph 19.6 mph N/A   Partly Cloudy
2:55 PM 51.8 °F - 50.0 °F 94% 29.93 in 10.0 mi WNW 11.5 mph 17.3 mph N/A   Scattered Clouds
3:15 PM 51.8 °F - 50.0 °F 94% 29.93 in 10.0 mi WNW 11.5 mph 16.1 mph N/A   Overcast
3:55 PM 53.6 °F - 50.0 °F 88% 29.92 in 10.0 mi NW 12.7 mph - N/A   Unknown
4:15 PM 53.6 °F - 50.0 °F 88% 29.92 in 10.0 mi NW 10.4 mph 17.3 mph N/A   Overcast
4:35 PM 53.6 °F - 51.8 °F 94% 29.92 in 10.0 mi NW 9.2 mph - N/A   Mostly Cloudy
4:55 PM 53.6 °F - 51.8 °F 94% 29.92 in 10.0 mi NW 12.7 mph - N/A   Mostly Cloudy
5:15 PM 53.6 °F - 50.0 °F 88% 29.92 in 10.0 mi NW 8.1 mph - N/A   Mostly Cloudy
5:55 PM 53.6 °F - 51.8 °F 94% 29.92 in 9.0 mi WNW 9.2 mph - N/A Rain Light Rain
6:15 PM 53.6 °F - 51.8 °F 94% 29.92 in 7.0 mi NW 11.5 mph 18.4 mph N/A Rain Light Rain
6:35 PM 53.6 °F - 51.8 °F 94% 29.92 in 2.0 mi WNW 11.5 mph - 0.02 in Rain Light Rain
6:55 PM 53.6 °F - 51.8 °F 94% 29.92 in 6.0 mi WNW 12.7 mph 16.1 mph 0.03 in   Partly Cloudy
7:15 PM 53.6 °F - 51.8 °F 94% 29.92 in 5.0 mi WNW 10.4 mph - N/A Rain Light Rain
7:55 PM 53.6 °F - 51.8 °F 94% 29.92 in 10.0 mi WNW 9.2 mph - N/A   Overcast
8:15 PM 53.6 °F - 51.8 °F 94% 29.92 in 10.0 mi West 9.2 mph - N/A   Overcast
8:35 PM 53.6 °F - 51.8 °F 94% 29.92 in 10.0 mi WNW 9.2 mph - N/A   Overcast
8:55 PM 53.6 °F - 51.8 °F 94% 29.91 in 8.0 mi WNW 11.5 mph - N/A   Overcast
9:15 PM 53.6 °F - 51.8 °F 94% 29.91 in 9.0 mi WNW 10.4 mph - N/A   Overcast
9:35 PM 53.6 °F - 51.8 °F 94% 29.91 in 10.0 mi WNW 8.1 mph - N/A   Overcast
9:55 PM 53.6 °F - 51.8 °F 94% 29.91 in 10.0 mi WNW 10.4 mph - N/A   Overcast
10:15 PM 53.6 °F - 51.8 °F 94% 29.91 in 10.0 mi NW 11.5 mph 20.7 mph N/A   Mostly Cloudy
10:35 PM 53.6 °F - 51.8 °F 94% 29.91 in 10.0 mi NW 10.4 mph - N/A   Mostly Cloudy
10:55 PM 53.6 °F - 51.8 °F 94% 29.91 in 10.0 mi NW 8.1 mph - N/A   Overcast
11:15 PM 53.6 °F - 51.8 °F 94% 29.90 in 10.0 mi NW 8.1 mph - N/A   Mostly Cloudy
11:35 PM 53.6 °F - 51.8 °F 94% 29.90 in 10.0 mi NW 6.9 mph - N/A   Partly Cloudy
11:55 PM 51.8 °F - 51.8 °F 100% 29.90 in 10.0 mi NW 4.6 mph - N/A   Clear